Back to catalog

STARLINK-5122

AliveCommunicationsVLEO
NORAD 54179·PAYLOAD·🇺🇸 United States

Launched Oct 28, 2022 from Vandenberg Space Force Base

Loading…

Next Passes (next 24 hours)

TLE

FreshSource: CelesTrak SupGP

Epoch: Sep 14, 2026, 20:57 UTC

1 54179C 22141Y   26257.87340278  .00031662  00000+0  93477-3 0  2574
2 54179  53.1566 219.6976 0001394  90.2173 311.3506 15.34397808    11

Track STARLINK-5122 in real time with AllMySat

Download on the App Store